[[{"header":{"parameterUnit":"m.s-1","parameterCategory":2,"la1":30.2991,"la2":30.254,"lo1":-89.0895,"lo2":-89.0444,"dy":0.0017,"dx":0.0017,"nx":28,"ny":28,"refTime":"2025-07-06T09:00:00:Z","depth":"0","parameterNumber":2,"parameterNumberName":"U-component_of_CURRENTS"},"data":[0,0,0,0,0,0,0,0,0,0,0,0,0,0,0,0,0,0,0,0,0,0,0,0,0,0,0,0,0,0,0,0,0,0,0,0,0,0,0,0,0,0,0,0,0,0,0,0,0,0,0,0,0,0,0,0,0,0,-0.1694,-0.1694,0,-0.1606,-0.1605,-0.1604,-0.1532,-0.1531,-0.1531,-0.153,-0.1424,-0.1422,-0.1419,0,0,0,0,0,0,0,0,0,0,0,0,0,-0.173,-0.173,-0.1695,-0.1694,-0.1693,-0.1606,-0.1605,-0.1604,-0.1532,-0.1531,-0.1531,-0.153,-0.1424,-0.1422,-0.1419,0,0,0,0,0,0,0,0,0,0,0,0,0,-0.1684,-0.173,-0.1695,-0.1647,-0.1642,-0.1607,-0.1605,-0.1603,-0.1532,-0.1531,-0.153,-0.1529,-0.1425,-0.1422,-0.1419,-0.1417,0,0,-0.1408,-0.1407,0,0,0,0,0,0,0,0,-0.1687,-0.1683,-0.1655,-0.1651,-0.1645,-0.158,-0.1578,-0.154,-0.1532,-0.1573,-0.153,-0.1529,-0.1476,-0.1468,-0.1452,-0.1412,-0.1407,-0.1408,-0.1406,-0.1405,-0.1404,0,0,0,0,0,0,0,-0.169,-0.1686,-0.1658,-0.1654,-0.1648,-0.1606,-0.1599,-0.157,-0.1529,-0.1569,-0.1564,-0.1557,-0.1473,-0.1456,-0.1449,-0.1406,-0.1408,-0.1405,-0.1403,-0.1402,-0.1403,-0.1405,0,0,0,0,0,0,-0.1709,-0.1689,-0.1661,-0.1656,-0.1665,-0.1607,-0.1599,-0.1601,-0.153,-0.1519,-0.1557,-0.1554,-0.1462,-0.1453,-0.1445,-0.144,-0.1405,-0.1402,-0.14,-0.1401,-0.1403,-0.1405,0,0,0,0,0,0,-0.171,-0.1708,-0.1665,-0.1671,-0.1662,-0.1608,-0.161,-0.16,-0.1576,-0.1521,-0.1509,-0.1544,-0.1461,-0.145,-0.1441,-0.1435,-0.14,-0.1397,-0.1398,-0.1401,-0.1404,-0.1428,0,0,0,0,0,0,-0.1712,-0.1709,-0.1711,-0.1673,-0.1663,-0.1645,-0.1611,-0.1599,-0.1574,-0.1567,-0.1506,-0.1495,-0.1459,-0.1446,-0.1438,-0.143,-0.1394,-0.1396,-0.14,-0.1403,-0.1424,-0.1431,-0.1437,0,0,0,0,0,-0.1713,-0.1719,-0.1712,-0.1708,-0.167,-0.1646,-0.1637,-0.1593,-0.1574,-0.1567,-0.1545,-0.1497,-0.1464,-0.1445,-0.1434,-0.1425,-0.1394,-0.1398,-0.1403,-0.1422,-0.143,-0.1437,0,0,0,0,0,0,-0.1719,-0.1711,-0.1703,-0.1702,-0.1679,-0.1634,-0.1622,-0.1597,-0.1571,-0.1568,-0.1517,-0.1506,-0.1495,-0.1475,-0.1455,-0.1446,-0.1423,-0.1426,-0.1441,-0.1449,-0.1455,-0.1461,-0.1391,0,0,0,0,0,-0.1729,-0.1738,-0.1716,-0.1712,-0.1708,-0.1668,-0.1651,-0.1626,-0.16,-0.1586,-0.1547,-0.1524,-0.1508,-0.149,-0.1472,-0.1463,-0.1451,-0.1457,-0.1463,-0.1468,-0.1472,-0.1468,-0.1473,-0.142,-0.142,-0.142,0,0,-0.1727,-0.1725,-0.1726,-0.1715,-0.1695,-0.1686,-0.1655,-0.1636,-0.162,-0.1581,-0.1553,-0.154,-0.1515,-0.1505,-0.1498,-0.1483,-0.1481,-0.1474,-0.1478,-0.1479,-0.1473,-0.1478,-0.1482,-0.1423,-0.1423,-0.1422,0,0,-0.1731,-0.1732,-0.1743,-0.1733,-0.1716,-0.1696,-0.1695,-0.166,-0.1639,-0.1622,-0.1598,-0.16,-0.1553,-0.1546,-0.1534,-0.1573,-0.1518,-0.1558,-0.158,-0.1577,-0.158,-0.1583,-0.1579,-0.1582,-0.1557,-0.1557,-0.1557,0,-0.1725,-0.1733,-0.1737,-0.1741,-0.1724,-0.1705,-0.1696,-0.168,-0.1643,-0.1637,-0.162,-0.1598,-0.1576,-0.1577,-0.159,-0.1582,-0.1567,-0.1543,-0.1581,-0.1584,-0.1586,-0.1582,-0.1584,-0.1558,-0.1558,-0.1558,-0.1558,0,-0.1737,-0.1737,-0.174,-0.1744,-0.1734,-0.1721,-0.1706,-0.1698,-0.1675,-0.1659,-0.1656,-0.1644,-0.1631,-0.1628,-0.1611,-0.1622,-0.1602,-0.1588,-0.1551,-0.1592,-0.1586,-0.1588,-0.1561,-0.156,-0.156,-0.1559,0,0,-0.1731,-0.1745,-0.1743,-0.1736,-0.1729,-0.1717,-0.1715,-0.1702,-0.1701,-0.1685,-0.1676,-0.1677,-0.1677,-0.1669,-0.1656,-0.1655,-0.1663,-0.1624,-0.1623,-0.1603,-0.1645,-0.1525,-0.1515,-0.1638,-0.1639,-0.1639,-0.1634,0,-0.1726,-0.1733,-0.174,-0.1725,-0.1719,-0.1711,-0.171,-0.1705,-0.1696,-0.1691,-0.1697,-0.1689,-0.1688,-0.1681,-0.1686,-0.166,-0.1667,-0.1665,-0.1625,-0.1624,-0.1496,-0.1513,-0.1405,-0.1381,-0.1636,-0.1636,-0.1636,0,-0.173,-0.1729,-0.1724,-0.1712,-0.171,-0.1704,-0.1697,-0.1691,-0.1703,-0.1699,-0.1712,-0.1707,-0.1717,-0.1705,-0.1701,-0.169,-0.1677,-0.1664,-0.1663,-0.1541,-0.1506,-0.1383,-0.1374,-0.137,-0.1638,-0.1638,-0.1638,0,-0.1717,-0.1711,-0.1703,-0.1697,-0.1694,-0.1689,-0.1683,-0.1696,-0.1684,-0.1705,-0.1694,-0.172,-0.1698,-0.1708,-0.1685,-0.1686,-0.1665,-0.1664,-0.1557,-0.1549,-0.1445,-0.1425,-0.1408,-0.1674,-0.1674,-0.1674,-0.1674,0,-0.1705,-0.1693,-0.1696,-0.1689,-0.167,-0.1678,-0.1663,-0.1674,-0.1677,-0.1657,-0.1694,-0.1674,-0.169,-0.1675,-0.1684,-0.1609,-0.1668,-0.1558,-0.1534,-0.1451,-0.1433,-0.1414,-0.1457,-0.1673,-0.1674,-0.1674,-0.1674,0,-0.1687,-0.1697,-0.1678,-0.1672,-0.1665,-0.1651,-0.1625,-0.1609,-0.1634,-0.1604,-0.1603,-0.1616,-0.16,-0.1619,-0.1615,-0.1566,-0.1509,-0.1512,-0.1408,-0.137,-0.1229,-0.1278,-0.1268,-0.1235,-0.1382,-0.1378,-0.1376,0,-0.1673,-0.1669,-0.1655,-0.1632,-0.1622,-0.1597,-0.1569,-0.1581,-0.1557,-0.1558,-0.1529,-0.1522,-0.1505,-0.1459,-0.1391,-0.1369,-0.1423,-0.1228,-0.1209,-0.1197,-0.1236,-0.13,-0.128,-0.11,-0.1095,-0.1091,-0.1088,0,-0.1622,-0.1627,-0.1608,-0.1574,-0.1539,-0.149,-0.1454,-0.143,-0.1432,-0.1418,-0.1385,-0.1384,-0.1334,-0.1231,-0.1178,-0.1159,-0.1184,-0.1143,-0.1166,-0.1035,-0.1071,-0.1034,-0.1144,-0.1054,-0.1058,-0.106,-0.1062,-0.1063,-0.1564,-0.1542,-0.152,-0.148,-0.1434,-0.1357,-0.1284,-0.126,-0.1209,-0.1142,-0.1227,-0.115,-0.1102,-0.1002,-0.0988,-0.0831,-0.0946,-0.0785,-0.0854,-0.0927,-0.086,-0.0879,-0.0732,-0.0733,-0.0734,-0.0735,-0.0736,0,-0.146,-0.1449,-0.1413,-0.1343,-0.1252,-0.1264,-0.1172,-0.1082,-0.0984,-0.0941,-0.092,-0.0805,-0.0759,-0.0721,-0.0579,-0.0547,-0.0586,-0.0565,-0.0658,-0.0657,-0.0686,-0.0633,-0.0412,-0.0412,-0.0412,-0.0412,-0.0412,-0.0412,-0.1395,-0.1341,-0.1331,-0.1169,-0.1111,-0.0955,-0.0878,-0.0783,-0.0701,-0.0524,-0.0392,-0.037,-0.0375,-0.0513,-0.0489,-0.0471,-0.0536,-0.0506,-0.0588,-0.0635,-0.0662,-0.0689,-0.0646,-0.0432,-0.0432,-0.0501,-0.0501,-0.0502]},{"header":{"parameterUnit":"m.s-1","parameterCategory":2,"la1":30.2991,"la2":30.254,"lo1":-89.0895,"lo2":-89.0444,"dy":0.0017,"dx":0.0017,"nx":28,"ny":28,"refTime":"2025-07-06T09:00:00:Z","depth":"0","parameterNumber":3,"parameterNumberName":"V-component_of_CURRENTS"},"data":[0,0,0,0,0,0,0,0,0,0,0,0,0,0,0,0,0,0,0,0,0,0,0,0,0,0,0,0,0,0,0,0,0,0,0,0,0,0,0,0,0,0,0,0,0,0,0,0,0,0,0,0,0,0,0,0,0,0,0.0033,0.0033,0,0.0091,0.0092,0.0093,0.0156,0.0157,0.0157,0.0158,0.0226,0.0227,0.0228,0,0,0,0,0,0,0,0,0,0,0,0,0,-0.0033,-0.0032,0.0032,0.0033,0.0034,0.0091,0.0092,0.0093,0.0156,0.0157,0.0158,0.0159,0.0226,0.0227,0.0228,0,0,0,0,0,0,0,0,0,0,0,0,0,0.0008,-0.0032,0.0032,0.0071,0.0075,0.0091,0.0092,0.0093,0.0155,0.0157,0.0158,0.0159,0.0225,0.0227,0.0228,0.0214,0,0,0.0233,0.0234,0,0,0,0,0,0,0,0,0.0006,0.0011,0.0065,0.0068,0.0073,0.0117,0.0094,0.0134,0.0155,0.0126,0.0158,0.016,0.0189,0.0193,0.0203,0.0218,0.022,0.0233,0.0234,0.0235,0.0235,0,0,0,0,0,0,0,0.0003,0.0009,0.0057,0.0065,0.007,0.0083,0.009,0.0102,0.0151,0.0129,0.0133,0.0138,0.0191,0.0201,0.0205,0.0221,0.0233,0.0235,0.0236,0.0236,0.024,0.024,0,0,0,0,0,0,-0.0007,0.0006,0.0055,0.0059,0.0041,0.0083,0.0092,0.0102,0.0151,0.0159,0.0137,0.014,0.0198,0.0203,0.0208,0.0175,0.0235,0.0236,0.0237,0.0241,0.024,0.0239,0,0,0,0,0,0,-0.0009,-0.0003,0.0053,0.0032,0.004,0.0083,0.0095,0.0103,0.0114,0.0156,0.0165,0.014,0.0199,0.0205,0.0218,0.0179,0.0237,0.0239,0.0242,0.0241,0.024,0.0122,0,0,0,0,0,0,-0.0011,-0.0004,-0.0007,0.0032,0.0041,0.0052,0.0094,0.0103,0.0115,0.012,0.0162,0.017,0.0201,0.0215,0.0219,0.0182,0.024,0.0243,0.0242,0.024,0.0127,0.0116,0.0108,0,0,0,0,0,-0.0013,-0.0023,-0.0007,-0.0001,0.0039,0.0051,0.0056,0.0091,0.0113,0.0108,0.0143,0.0168,0.0208,0.0216,0.0221,0.0183,0.0244,0.0242,0.024,0.0131,0.0118,0.0108,0,0,0,0,0,0,-0.0058,-0.0016,0.0002,0.0005,0.0021,0.0061,0.0059,0.0083,0.0105,0.0114,0.0158,0.0167,0.0161,0.0194,0.0201,0.0183,0.023,0.0229,0.0145,0.0133,0.0124,0.0108,0.0241,0,0,0,0,0,-0.007,-0.0063,-0.0026,-0.0029,-0.0019,0.0018,0.0026,0.0049,0.0077,0.0089,0.012,0.0149,0.0156,0.0163,0.0182,0.017,0.0197,0.0152,0.0142,0.0134,0.0126,0.0118,0.0106,0.0233,0.0233,0.0233,0,0,-0.0091,-0.0067,-0.0065,-0.0038,-0.0018,-0.0024,0.0026,0.0033,0.0021,0.009,0.0086,0.0116,0.0147,0.0135,0.0135,0.0157,0.0116,0.0132,0.0124,0.012,0.0115,0.0102,0.0091,0.0232,0.0232,0.0232,0,0,-0.013,-0.0106,-0.0111,-0.0101,-0.0076,-0.006,-0.0062,-0.0025,-0.0015,-0.0013,0.0026,0.0035,0.0061,0.0067,0.0073,0.0024,0.0066,0.0033,-0.0034,-0.0042,-0.0053,-0.0062,-0.0034,-0.004,0.0026,0.0026,0.0026,0,-0.0158,-0.0155,-0.0117,-0.0122,-0.0125,-0.0081,-0.01,-0.0093,-0.006,-0.0065,-0.0027,-0.0006,0.0022,-0.0012,-0.0024,-0.0003,0.0018,0.0001,-0.0057,-0.0066,-0.0074,-0.0042,-0.0047,0.002,0.0021,0.0021,0.0022,0,-0.0199,-0.0199,-0.0206,-0.0198,-0.0202,-0.021,-0.0194,-0.0199,-0.0178,-0.0164,-0.0175,-0.0131,-0.0116,-0.0115,-0.0085,-0.0133,-0.0091,-0.0071,-0.0036,-0.0094,-0.0056,-0.0059,0.0012,0.0014,0.0016,0.0017,0,0,-0.0248,-0.0235,-0.0238,-0.025,-0.0241,-0.025,-0.0283,-0.0299,-0.0324,-0.0293,-0.0321,-0.0306,-0.0266,-0.0255,-0.0219,-0.0228,-0.0259,-0.0177,-0.0175,-0.0161,-0.0253,-0.0117,-0.0106,-0.0254,-0.0255,-0.0257,-0.0201,0,-0.0291,-0.0318,-0.0304,-0.0351,-0.0365,-0.0352,-0.039,-0.0402,-0.0396,-0.0412,-0.0384,-0.0385,-0.0327,-0.0316,-0.0321,-0.0289,-0.0275,-0.0274,-0.0187,-0.0184,-0.0067,-0.0108,-0.0019,0.0047,-0.0204,-0.0204,-0.0205,0,-0.0333,-0.0346,-0.0388,-0.0422,-0.0429,-0.0457,-0.0506,-0.053,-0.0548,-0.0539,-0.0534,-0.0494,-0.0508,-0.0434,-0.041,-0.0413,-0.0335,-0.0295,-0.0291,-0.0126,-0.0054,0.0065,0.0052,0.019,-0.0209,-0.0209,-0.0208,0,-0.038,-0.041,-0.0448,-0.0457,-0.0487,-0.0517,-0.054,-0.0567,-0.0599,-0.0611,-0.0625,-0.0616,-0.0611,-0.0551,-0.0451,-0.0437,-0.0405,-0.0372,-0.0166,-0.0154,-0.0039,-0.0014,0.0081,-0.0327,-0.0327,-0.0327,-0.0328,0,-0.0426,-0.0457,-0.0471,-0.0491,-0.0557,-0.056,-0.0627,-0.0644,-0.0677,-0.073,-0.0683,-0.0724,-0.0643,-0.0603,-0.0497,-0.0344,-0.0435,-0.0179,-0.0139,-0.0072,-0.0052,0.0108,0.0139,-0.0325,-0.0326,-0.0326,-0.0327,0,-0.046,-0.0467,-0.0512,-0.0552,-0.0572,-0.0615,-0.0676,-0.0723,-0.0742,-0.0808,-0.0814,-0.0824,-0.0778,-0.0654,-0.0559,-0.0392,-0.0155,-0.0171,-0.0073,-0.0021,0.0332,0.0353,0.0471,0.058,0.0062,0.0065,0.0068,0,-0.0477,-0.0498,-0.0551,-0.0584,-0.06,-0.0661,-0.0709,-0.075,-0.0802,-0.0882,-0.0925,-0.0898,-0.0894,-0.0678,-0.0394,-0.0145,-0.0048,0.0144,0.0201,0.0367,0.0417,0.0411,0.0492,0.0305,0.0309,0.0313,0.0316,0,-0.0504,-0.0515,-0.0549,-0.0613,-0.0667,-0.0739,-0.0809,-0.0865,-0.0927,-0.0993,-0.1099,-0.1107,-0.0868,-0.0575,-0.0167,0.0003,0.027,0.0237,0.0356,0.0578,0.0625,0.0745,0.0272,0.0351,0.0347,0.0345,0.0343,0.0341,-0.0515,-0.0546,-0.0581,-0.0644,-0.0708,-0.0795,-0.0848,-0.0941,-0.1041,-0.112,-0.1191,-0.1119,-0.0623,-0.0068,0.0086,0.0625,0.0537,0.0812,0.0813,0.0784,0.0923,0.056,0.0721,0.072,0.0719,0.0718,0.0717,0,-0.0532,-0.056,-0.0612,-0.0685,-0.0745,-0.078,-0.0895,-0.0942,-0.1055,-0.1097,-0.1172,-0.0645,-0.0183,0.029,0.0997,0.1207,0.1214,0.1295,0.128,0.1331,0.0974,0.1023,0.1322,0.1321,0.1321,0.1321,0.1321,0.1321,-0.054,-0.0584,-0.0608,-0.0689,-0.0737,-0.0807,-0.0862,-0.094,-0.0956,-0.0851,-0.0599,-0.0431,0.0317,0.106,0.1584,0.163,0.1741,0.1717,0.1768,0.1499,0.1452,0.1408,0.1464,0.185,0.185,0.2149,0.2151,0.2154]}],[{"header":{"parameterUnit":"m.s-1","parameterCategory":2,"la1":30.2991,"la2":30.254,"lo1":-89.0895,"lo2":-89.0444,"dy":0.0017,"dx":0.0017,"nx":28,"ny":28,"refTime":"2025-07-06T09:00:00:Z","depth":"2","parameterNumber":2,"parameterNumberName":"U-component_of_CURRENTS"},"data":[0,0,0,0,0,0,0,0,0,0,0,0,0,0,0,0,0,0,0,0,0,0,0,0,0,0,0,0,0,0,0,0,0,0,0,0,0,0,0,0,0,0,0,0,0,0,0,0,0,0,0,0,0,0,0,0,0,0,-0.1866,-0.1867,0,-0.216,-0.2165,-0.217,-0.2252,-0.2248,-0.2244,-0.2241,-0.2456,-0.2465,-0.2474,0,0,0,0,0,0,0,0,0,0,0,0,0,-0.1866,-0.1864,-0.1866,-0.1867,-0.1869,-0.2159,-0.2165,-0.2172,-0.2253,-0.2248,-0.2243,-0.2239,-0.2452,-0.2463,-0.2475,0,0,0,0,0,0,0,0,0,0,0,0,0,-0.2005,-0.1864,-0.1866,-0.1926,-0.1933,-0.2158,-0.2165,-0.2173,-0.2254,-0.2248,-0.2242,-0.2237,-0.2449,-0.2462,-0.2476,-0.268,0,0,-0.2519,-0.2525,0,0,0,0,0,0,0,0,-0.1997,-0.2008,-0.1916,-0.1922,-0.193,-0.2142,-0.2243,-0.233,-0.2255,-0.2158,-0.2241,-0.2234,-0.2332,-0.2355,-0.2459,-0.269,-0.2699,-0.252,-0.2529,-0.2535,-0.2539,0,0,0,0,0,0,0,-0.1986,-0.1998,-0.2007,-0.1917,-0.1926,-0.2105,-0.2117,-0.2265,-0.2292,-0.2166,-0.2166,-0.2162,-0.2337,-0.2446,-0.2464,-0.2702,-0.252,-0.2532,-0.2541,-0.2547,-0.2853,-0.2853,0,0,0,0,0,0,-0.1881,-0.1987,-0.1997,-0.2013,-0.1922,-0.2106,-0.2121,-0.21,-0.2292,-0.2309,-0.2167,-0.2164,-0.2425,-0.2448,-0.2471,-0.2591,-0.2535,-0.2548,-0.2556,-0.2853,-0.2853,-0.2853,0,0,0,0,0,0,-0.188,-0.1879,-0.1985,-0.1989,-0.2011,-0.2105,-0.2087,-0.2108,-0.2205,-0.2289,-0.2308,-0.2234,-0.2421,-0.2452,-0.2612,-0.2603,-0.2554,-0.2567,-0.2853,-0.2853,-0.2853,-0.2913,0,0,0,0,0,0,-0.1879,-0.1877,-0.1885,-0.198,-0.2006,-0.2114,-0.209,-0.2117,-0.2199,-0.2201,-0.2355,-0.2369,-0.2419,-0.2591,-0.2626,-0.2621,-0.2578,-0.2854,-0.2853,-0.2853,-0.2911,-0.2915,-0.2918,0,0,0,0,0,-0.1878,-0.1883,-0.1883,-0.1886,-0.1992,-0.2115,-0.2152,-0.2217,-0.2207,-0.2282,-0.2377,-0.2364,-0.2605,-0.2609,-0.2648,-0.2646,-0.2854,-0.2853,-0.2853,-0.291,-0.2914,-0.2918,0,0,0,0,0,0,-0.191,-0.1893,-0.1894,-0.1899,-0.1994,-0.2118,-0.2181,-0.2235,-0.2387,-0.2377,-0.2456,-0.2483,-0.2595,-0.2625,-0.2624,-0.2714,-0.2692,-0.2699,-0.272,-0.2726,-0.2728,-0.2687,-0.259,0,0,0,0,0,-0.1909,-0.1897,-0.1942,-0.1964,-0.1985,-0.2098,-0.2168,-0.2217,-0.2326,-0.2388,-0.2506,-0.2575,-0.2637,-0.2684,-0.2774,-0.2899,-0.2853,-0.2884,-0.2887,-0.289,-0.2875,-0.2814,-0.281,-0.285,-0.285,-0.285,0,0,-0.1934,-0.1918,-0.1921,-0.1971,-0.204,-0.2141,-0.2132,-0.2227,-0.2324,-0.239,-0.2587,-0.2637,-0.2676,-0.2784,-0.2826,-0.2804,-0.2857,-0.289,-0.2893,-0.2875,-0.2813,-0.2809,-0.2805,-0.285,-0.285,-0.285,0,0,-0.1976,-0.1951,-0.1962,-0.2037,-0.2105,-0.2187,-0.2205,-0.2352,-0.241,-0.2606,-0.2615,-0.2669,-0.2857,-0.2852,-0.2864,-0.2944,-0.2888,-0.2934,-0.2926,-0.2868,-0.2865,-0.286,-0.2809,-0.28,-0.292,-0.292,-0.292,0,-0.2016,-0.2017,-0.2011,-0.2065,-0.2136,-0.2196,-0.2295,-0.239,-0.2594,-0.2617,-0.2651,-0.2807,-0.287,-0.2882,-0.2899,-0.2951,-0.2908,-0.2922,-0.2873,-0.2868,-0.2863,-0.281,-0.2799,-0.2923,-0.2923,-0.2922,-0.2922,0,-0.2072,-0.2108,-0.2127,-0.2197,-0.2299,-0.2387,-0.2476,-0.2572,-0.2646,-0.2719,-0.2783,-0.2875,-0.2917,-0.293,-0.2967,-0.2928,-0.2909,-0.29,-0.2868,-0.2862,-0.2808,-0.2795,-0.2927,-0.2926,-0.2925,-0.2924,0,0,-0.2065,-0.2145,-0.216,-0.2197,-0.2368,-0.243,-0.2565,-0.2662,-0.2657,-0.2823,-0.2818,-0.2937,-0.2917,-0.2924,-0.2928,-0.2894,-0.2857,-0.2888,-0.2884,-0.2844,-0.2725,-0.2579,-0.2551,-0.2839,-0.2837,-0.2835,-0.2706,0,-0.2122,-0.2203,-0.2272,-0.2416,-0.2465,-0.2563,-0.2677,-0.2764,-0.2811,-0.2831,-0.2817,-0.2842,-0.2923,-0.2899,-0.2891,-0.286,-0.2824,-0.2892,-0.2729,-0.2723,-0.2599,-0.2531,-0.2374,-0.2233,-0.2694,-0.2692,-0.269,0,-0.2156,-0.2194,-0.2327,-0.2431,-0.2462,-0.2583,-0.2658,-0.2767,-0.2776,-0.2783,-0.2772,-0.2763,-0.2748,-0.2787,-0.2746,-0.2785,-0.2763,-0.274,-0.2733,-0.2559,-0.2551,-0.2308,-0.2192,-0.2669,-0.267,-0.2672,-0.2673,0,-0.2105,-0.2225,-0.2313,-0.2372,-0.2528,-0.258,-0.2671,-0.2741,-0.2728,-0.2711,-0.2653,-0.2662,-0.2621,-0.2611,-0.2628,-0.2666,-0.2544,-0.2577,-0.242,-0.2411,-0.2221,-0.2196,-0.2509,-0.2509,-0.2509,-0.2509,-0.251,0,-0.2138,-0.2176,-0.2266,-0.2324,-0.2373,-0.252,-0.2545,-0.2604,-0.2593,-0.254,-0.26,-0.2516,-0.2574,-0.2525,-0.2553,-0.2441,-0.2487,-0.2384,-0.2347,-0.2238,-0.2217,-0.2554,-0.2561,-0.2505,-0.2506,-0.2507,-0.2507,0,-0.2085,-0.2166,-0.2221,-0.2343,-0.2362,-0.24,-0.2449,-0.2391,-0.2457,-0.2365,-0.2343,-0.2362,-0.2337,-0.2368,-0.2332,-0.2304,-0.2232,-0.2184,-0.2058,-0.2006,-0.2159,-0.2171,-0.1957,-0.1951,-0.1945,-0.194,-0.1936,0,-0.2054,-0.2086,-0.2187,-0.2182,-0.2239,-0.2268,-0.2244,-0.231,-0.2247,-0.2263,-0.2179,-0.2152,-0.2122,-0.2024,-0.1961,-0.1902,-0.2071,-0.17,-0.1731,-0.2105,-0.2093,-0.2114,-0.2133,-0.1523,-0.1516,-0.151,-0.1506,0,-0.197,-0.2021,-0.2082,-0.207,-0.2051,-0.1999,-0.1992,-0.193,-0.1995,-0.1954,-0.1936,-0.1923,-0.1838,-0.17,-0.1603,-0.1564,-0.1697,-0.1572,-0.1954,-0.1683,-0.1683,-0.1676,-0.1711,-0.1454,-0.1459,-0.1463,-0.1466,-0.1468,-0.1873,-0.1888,-0.1952,-0.1928,-0.1865,-0.1757,-0.1705,-0.1687,-0.1634,-0.1619,-0.1702,-0.165,-0.1604,-0.1361,-0.1268,-0.1169,-0.1304,-0.1263,-0.1287,-0.1315,-0.1283,-0.1272,-0.0961,-0.0964,-0.0966,-0.0967,-0.0969,0,-0.1724,-0.176,-0.1757,-0.1733,-0.158,-0.1605,-0.1513,-0.1449,-0.1399,-0.1406,-0.1433,-0.1251,-0.1115,-0.1084,-0.0824,-0.0742,-0.0802,-0.073,-0.0834,-0.0882,-0.0926,-0.0882,-0.045,-0.0449,-0.0447,-0.0446,0,0,-0.1653,-0.1626,-0.1652,-0.1439,-0.1384,-0.1189,-0.1132,-0.1101,-0.1091,-0.1061,-0.1023,-0.1106,-0.1049,-0.0772,-0.0682,-0.0531,-0.0723,-0.0495,-0.0906,-0.1079,-0.1123,-0.1212,-0.1194,0,0,0,0,0]},{"header":{"parameterUnit":"m.s-1","parameterCategory":2,"la1":30.2991,"la2":30.254,"lo1":-89.0895,"lo2":-89.0444,"dy":0.0017,"dx":0.0017,"nx":28,"ny":28,"refTime":"2025-07-06T09:00:00:Z","depth":"2","parameterNumber":3,"parameterNumberName":"V-component_of_CURRENTS"},"data":[0,0,0,0,0,0,0,0,0,0,0,0,0,0,0,0,0,0,0,0,0,0,0,0,0,0,0,0,0,0,0,0,0,0,0,0,0,0,0,0,0,0,0,0,0,0,0,0,0,0,0,0,0,0,0,0,0,0,-0.0168,-0.0167,0,-0.0083,-0.0082,-0.008,-0.002,-0.002,-0.002,-0.002,0.0227,0.0233,0.024,0,0,0,0,0,0,0,0,0,0,0,0,0,-0.0194,-0.0194,-0.0168,-0.0167,-0.0167,-0.0083,-0.0082,-0.008,-0.002,-0.002,-0.002,-0.002,0.0225,0.0233,0.024,0,0,0,0,0,0,0,0,0,0,0,0,0,-0.0149,-0.0194,-0.0168,-0.013,-0.0127,-0.0083,-0.0081,-0.0079,-0.002,-0.002,-0.002,-0.002,0.0222,0.0232,0.0242,0.0301,0,0,0.0272,0.0276,0,0,0,0,0,0,0,0,-0.0151,-0.0147,-0.0137,-0.0133,-0.0129,-0.0066,-0.0,0.0054,-0.002,-0.0056,-0.002,-0.002,0.0141,0.0157,0.0178,0.0313,0.0323,0.0272,0.0278,0.0283,0.0285,0,0,0,0,0,0,0,-0.0155,-0.015,-0.0129,-0.0136,-0.0131,-0.0089,-0.0083,0.001,0.0048,-0.0052,-0.0049,-0.0047,0.0145,0.0168,0.0184,0.0327,0.0272,0.0281,0.0287,0.0291,0.055,0.0551,0,0,0,0,0,0,-0.0179,-0.0154,-0.0132,-0.0127,-0.0145,-0.0089,-0.0082,-0.0082,0.0044,0.006,-0.0047,-0.0045,0.0151,0.0173,0.0193,0.0322,0.0282,0.0292,0.0297,0.0549,0.055,0.0551,0,0,0,0,0,0,-0.018,-0.0178,-0.0136,-0.0142,-0.0134,-0.009,-0.009,-0.0081,-0.0057,0.0045,0.0065,-0.0034,0.0152,0.018,0.0313,0.033,0.0296,0.0305,0.0548,0.0549,0.0551,0.0548,0,0,0,0,0,0,-0.0181,-0.0179,-0.0182,-0.0144,-0.0135,-0.0117,-0.009,-0.0079,-0.0059,-0.0054,0.0064,0.0086,0.0154,0.0299,0.0323,0.0343,0.0313,0.0547,0.0549,0.055,0.0547,0.0549,0.0551,0,0,0,0,0,-0.0183,-0.0194,-0.0183,-0.018,-0.0143,-0.0118,-0.0109,-0.0073,-0.0058,-0.005,0.006,0.0082,0.0325,0.0309,0.0338,0.036,0.0546,0.0548,0.055,0.0546,0.0549,0.0551,0,0,0,0,0,0,-0.0204,-0.0188,-0.0175,-0.018,-0.0154,-0.011,-0.0102,-0.0077,0.0011,0.0025,0.0127,0.016,0.0272,0.0319,0.0298,0.0435,0.0426,0.0434,0.0413,0.0417,0.0419,0.0395,0.0321,0,0,0,0,0,-0.0213,-0.0217,-0.019,-0.0192,-0.0185,-0.0142,-0.0127,-0.0105,-0.0031,0.0004,0.0103,0.0203,0.0301,0.0362,0.045,0.0547,0.0548,0.0568,0.057,0.0572,0.057,0.0612,0.0617,0.0559,0.0559,0.0559,0,0,-0.0224,-0.0214,-0.0216,-0.0197,-0.0174,-0.0149,-0.0131,-0.0116,-0.0066,0.0024,0.0143,0.0223,0.0329,0.0438,0.0488,0.0484,0.0581,0.0575,0.0576,0.0573,0.0615,0.062,0.0625,0.056,0.056,0.056,0,0,-0.0253,-0.0238,-0.0254,-0.0233,-0.0211,-0.0166,-0.0165,-0.0107,-0.0054,0.0057,0.0135,0.0244,0.0385,0.048,0.054,0.0609,0.0591,0.0603,0.0608,0.0649,0.0653,0.0658,0.0625,0.0627,0.0605,0.0605,0.0605,0,-0.0267,-0.0277,-0.0252,-0.0255,-0.0227,-0.0174,-0.0161,-0.0095,0.0012,0.0081,0.0092,0.0319,0.0413,0.0555,0.0574,0.0618,0.0594,0.0592,0.065,0.0655,0.066,0.0625,0.0627,0.0606,0.0606,0.0606,0.0606,0,-0.0303,-0.0304,-0.0309,-0.0279,-0.0239,-0.0226,-0.0137,-0.0068,0.0009,0.009,0.0237,0.0365,0.0489,0.0528,0.0582,0.0662,0.0615,0.0646,0.0639,0.0665,0.0627,0.0629,0.0606,0.0606,0.0606,0.0606,0,0,-0.035,-0.034,-0.0339,-0.0331,-0.0251,-0.0227,-0.0119,-0.0005,0.0059,0.0185,0.0262,0.0462,0.0503,0.0571,0.0637,0.0682,0.0697,0.0661,0.0663,0.0618,0.0708,0.0721,0.0723,0.0718,0.072,0.0721,0.0652,0,-0.0384,-0.0409,-0.0364,-0.0336,-0.0332,-0.0227,-0.0125,-0.0006,0.0101,0.0192,0.0335,0.0437,0.0526,0.0554,0.0625,0.0673,0.0706,0.0708,0.0699,0.0697,0.07,0.073,0.0716,0.0659,0.0654,0.0654,0.0655,0,-0.0424,-0.0435,-0.0436,-0.0368,-0.035,-0.0302,-0.015,-0.006,0.0105,0.0178,0.0302,0.0385,0.0504,0.0534,0.066,0.0639,0.0672,0.0706,0.0705,0.0723,0.0717,0.0643,0.0663,0.0658,0.0658,0.0657,0.0657,0,-0.0478,-0.0469,-0.0469,-0.0452,-0.0363,-0.0315,-0.0236,-0.0062,0.0001,0.014,0.0154,0.0337,0.0369,0.0473,0.0587,0.0597,0.066,0.0692,0.0739,0.0736,0.0731,0.0728,0.0769,0.0769,0.0769,0.0769,0.0769,0,-0.0519,-0.052,-0.051,-0.0514,-0.048,-0.0383,-0.0311,-0.0203,-0.0107,-0.0038,0.0116,0.0165,0.0349,0.0425,0.053,0.0635,0.0633,0.0737,0.074,0.0726,0.0723,0.074,0.0738,0.0767,0.0767,0.0768,0.0768,0,-0.0566,-0.0563,-0.0576,-0.0532,-0.0515,-0.0489,-0.0408,-0.0362,-0.0257,-0.0203,-0.0179,-0.0005,0.0137,0.0298,0.0448,0.0549,0.0658,0.0695,0.0632,0.0633,0.07,0.0699,0.0721,0.0721,0.0722,0.0722,0.0722,0,-0.0586,-0.0607,-0.0618,-0.0629,-0.0615,-0.058,-0.0542,-0.0442,-0.0404,-0.0277,-0.0271,-0.0136,0.0029,0.023,0.0431,0.0599,0.0639,0.0661,0.0736,0.0705,0.0705,0.0703,0.0701,0.069,0.069,0.069,0.069,0,-0.0618,-0.0632,-0.0653,-0.0695,-0.0697,-0.0684,-0.0641,-0.0649,-0.0512,-0.0463,-0.0345,-0.0218,0.0014,0.0256,0.0472,0.0575,0.0642,0.0665,0.0661,0.0724,0.0677,0.0677,0.0676,0.0689,0.069,0.069,0.069,0.069,-0.0633,-0.0672,-0.0713,-0.074,-0.0754,-0.0752,-0.0733,-0.0694,-0.0636,-0.0493,-0.0379,-0.0134,0.0082,0.0451,0.0553,0.0634,0.0662,0.0709,0.0709,0.0709,0.0738,0.0697,0.0712,0.0712,0.0712,0.0712,0.0713,0,-0.0647,-0.0692,-0.0739,-0.0775,-0.0794,-0.0786,-0.0762,-0.0712,-0.0638,-0.0463,-0.0298,0.0002,0.0279,0.0464,0.0604,0.0696,0.0685,0.0695,0.0679,0.0679,0.068,0.0707,0.0673,0.0673,0.0673,0.0673,0,0,-0.0658,-0.0711,-0.0748,-0.0787,-0.0805,-0.0802,-0.0783,-0.0715,-0.0578,-0.0384,-0.0177,0.0143,0.0371,0.0483,0.0574,0.0617,0.0614,0.0608,0.0634,0.0602,0.0601,0.0687,0.073,0,0,0,0,0]}],[{"header":{"parameterUnit":"m.s-1","parameterCategory":2,"la1":30.2991,"la2":30.254,"lo1":-89.0895,"lo2":-89.0444,"dy":0.0017,"dx":0.0017,"nx":28,"ny":28,"refTime":"2025-07-06T09:00:00:Z","depth":"4","parameterNumber":2,"parameterNumberName":"U-component_of_CURRENTS"},"data":[0,0,0,0,0,0,0,0,0,0,0,0,0,0,0,0,0,0,0,0,0,0,0,0,0,0,0,0,0,0,0,0,0,0,0,0,0,0,0,0,0,0,0,0,0,0,0,0,0,0,0,0,0,0,0,0,0,0,-0.1332,-0.1333,0,-0.1419,-0.142,-0.142,-0.1444,-0.1443,-0.1443,-0.1443,-0.1449,-0.145,-0.145,0,0,0,0,0,0,0,0,0,0,0,0,0,-0.1172,-0.1175,-0.1331,-0.1333,-0.1335,-0.1419,-0.142,-0.142,-0.1444,-0.1443,-0.1443,-0.1443,-0.1449,-0.1449,-0.145,0,0,0,0,0,0,0,0,0,0,0,0,0,-0.1244,-0.1175,-0.1331,-0.136,-0.1364,-0.1419,-0.142,-0.142,-0.1444,-0.1443,-0.1443,-0.1443,-0.1449,-0.1449,-0.145,-0.1453,0,0,-0.1451,-0.1451,0,0,0,0,0,0,0,0,-0.124,-0.1249,-0.1354,-0.1358,-0.1363,-0.1425,-0.1366,-0.1429,-0.1444,-0.1408,-0.1443,-0.1443,-0.1437,-0.1438,-0.1449,-0.1454,-0.1454,-0.1451,-0.1451,-0.1451,-0.1451,0,0,0,0,0,0,0,-0.1235,-0.1245,-0.1361,-0.1356,-0.1361,-0.1365,-0.1374,-0.1378,-0.1416,-0.1411,-0.1414,-0.1432,-0.1438,-0.1449,-0.1449,-0.1454,-0.1451,-0.1451,-0.1451,-0.1451,-0.152,-0.1522,0,0,0,0,0,0,-0.1235,-0.1241,-0.1358,-0.1364,-0.1305,-0.1368,-0.1379,-0.1401,-0.1418,-0.1423,-0.1432,-0.1433,-0.1448,-0.1449,-0.1449,-0.1494,-0.1451,-0.1451,-0.1452,-0.1518,-0.152,-0.1522,0,0,0,0,0,0,-0.1232,-0.1245,-0.1355,-0.1308,-0.1323,-0.1372,-0.1396,-0.1403,-0.1433,-0.1436,-0.1438,-0.1459,-0.1448,-0.1449,-0.1464,-0.1493,-0.1452,-0.1452,-0.1516,-0.1519,-0.1521,-0.1558,0,0,0,0,0,0,-0.1227,-0.1243,-0.1263,-0.1308,-0.1326,-0.1398,-0.1397,-0.1405,-0.1446,-0.1448,-0.1459,-0.1459,-0.1448,-0.1464,-0.1464,-0.1492,-0.1452,-0.1514,-0.1518,-0.152,-0.1554,-0.1561,-0.1567,0,0,0,0,0,-0.1221,-0.125,-0.1263,-0.1278,-0.135,-0.14,-0.1409,-0.1439,-0.1447,-0.1465,-0.1469,-0.1459,-0.1484,-0.1465,-0.1465,-0.1494,-0.1513,-0.1517,-0.152,-0.1552,-0.156,-0.1566,0,0,0,0,0,0,-0.1193,-0.1257,-0.1272,-0.132,-0.1361,-0.1406,-0.1432,-0.1453,-0.1473,-0.1477,-0.147,-0.147,-0.1498,-0.1494,-0.1473,-0.1526,-0.1501,-0.1505,-0.1525,-0.1533,-0.1539,-0.1528,-0.1452,0,0,0,0,0,-0.1197,-0.1233,-0.1289,-0.1328,-0.1352,-0.1395,-0.1422,-0.1445,-0.1471,-0.1482,-0.149,-0.1501,-0.1512,-0.1519,-0.1527,-0.155,-0.1536,-0.1574,-0.158,-0.1585,-0.1579,-0.1591,-0.1596,-0.1534,-0.1534,-0.1534,0,0,-0.1194,-0.1238,-0.1257,-0.1324,-0.1359,-0.1394,-0.141,-0.1461,-0.1486,-0.1477,-0.1511,-0.1522,-0.1524,-0.155,-0.1563,-0.155,-0.1597,-0.159,-0.1594,-0.1585,-0.1595,-0.1601,-0.1606,-0.1537,-0.1536,-0.1536,0,0,-0.1206,-0.1251,-0.1282,-0.132,-0.1384,-0.141,-0.1429,-0.1485,-0.1508,-0.1544,-0.1545,-0.1562,-0.1592,-0.1589,-0.1592,-0.1637,-0.1629,-0.1664,-0.1684,-0.1696,-0.17,-0.1704,-0.169,-0.1692,-0.1667,-0.1667,-0.1667,0,-0.1199,-0.1251,-0.1297,-0.1338,-0.1368,-0.1418,-0.1448,-0.1483,-0.1534,-0.1544,-0.1561,-0.1602,-0.1602,-0.1619,-0.1643,-0.1647,-0.1655,-0.1652,-0.1702,-0.1705,-0.1709,-0.1693,-0.1695,-0.1669,-0.1669,-0.1669,-0.1669,0,-0.1227,-0.1274,-0.1299,-0.1359,-0.1394,-0.1436,-0.1485,-0.1517,-0.1553,-0.1578,-0.1618,-0.1633,-0.165,-0.167,-0.1672,-0.1707,-0.1705,-0.1706,-0.1676,-0.1717,-0.1698,-0.17,-0.1673,-0.1672,-0.1671,-0.1671,0,0,-0.1187,-0.1296,-0.1304,-0.1334,-0.141,-0.1438,-0.148,-0.1521,-0.1544,-0.1599,-0.163,-0.1661,-0.168,-0.1686,-0.1703,-0.1723,-0.1752,-0.174,-0.1739,-0.1714,-0.1778,-0.1642,-0.163,-0.178,-0.178,-0.1781,-0.1753,0,-0.1191,-0.1265,-0.1316,-0.1368,-0.1403,-0.1452,-0.1485,-0.1525,-0.1566,-0.1609,-0.1638,-0.1678,-0.1686,-0.1714,-0.1735,-0.1755,-0.176,-0.1758,-0.1752,-0.1751,-0.1616,-0.1629,-0.1783,-0.1754,-0.1754,-0.1754,-0.1754,0,-0.1183,-0.1241,-0.1301,-0.1373,-0.1392,-0.1425,-0.1471,-0.1511,-0.1568,-0.1604,-0.1645,-0.1684,-0.1721,-0.1737,-0.1763,-0.1775,-0.1778,-0.1786,-0.1785,-0.1643,-0.1618,-0.1708,-0.1756,-0.1756,-0.1756,-0.1756,-0.1756,0,-0.1114,-0.1213,-0.1261,-0.1291,-0.1387,-0.1409,-0.1447,-0.1501,-0.1541,-0.1608,-0.1648,-0.1692,-0.1729,-0.1753,-0.1769,-0.1785,-0.1794,-0.1804,-0.1671,-0.1661,-0.1776,-0.1772,-0.1809,-0.1809,-0.1809,-0.1809,-0.1809,0,-0.1078,-0.1115,-0.124,-0.1268,-0.131,-0.138,-0.1426,-0.1461,-0.1543,-0.1576,-0.1649,-0.1677,-0.1746,-0.1764,-0.1774,-0.1711,-0.1785,-0.1661,-0.1643,-0.1792,-0.1791,-0.1776,-0.1772,-0.1808,-0.1808,-0.1808,-0.1808,0,-0.0987,-0.1077,-0.1138,-0.1252,-0.1285,-0.131,-0.142,-0.1453,-0.153,-0.1582,-0.1612,-0.1683,-0.1678,-0.1712,-0.1731,-0.1686,-0.1658,-0.1617,-0.1755,-0.1748,-0.1518,-0.1517,-0.1459,-0.1454,-0.145,-0.1446,-0.1443,0,-0.0943,-0.0974,-0.111,-0.1151,-0.1207,-0.1277,-0.1324,-0.1427,-0.1464,-0.1558,-0.1566,-0.1605,-0.1628,-0.1531,-0.1581,-0.1547,-0.1537,-0.1513,-0.1528,-0.1492,-0.1482,-0.1488,-0.1493,-0.1436,-0.1435,-0.1434,-0.1433,0,-0.0862,-0.0927,-0.0988,-0.1069,-0.1134,-0.1212,-0.1283,-0.1307,-0.1409,-0.1498,-0.147,-0.1462,-0.1441,-0.143,-0.1405,-0.1393,-0.1528,-0.1468,-0.1477,-0.1491,-0.1464,-0.1459,-0.1469,-0.1418,-0.142,-0.1422,-0.1423,0,-0.0799,-0.0818,-0.0911,-0.0968,-0.1058,-0.1116,-0.1174,-0.1213,-0.1265,-0.1361,-0.1338,-0.1366,-0.1413,-0.1347,-0.1333,-0.1296,-0.1282,-0.1257,-0.1277,-0.1294,-0.1253,-0.1196,-0.1037,0,0,0,0,0,-0.0733,-0.0752,-0.08,-0.0879,-0.097,-0.1022,-0.1132,-0.1197,-0.1293,-0.123,-0.1282,-0.1248,-0.1204,-0.1224,-0.1149,-0.1268,-0.1299,-0.1178,-0.1285,-0.1336,-0.1353,-0.1321,0,0,0,0,0,0,-0.0696,-0.0734,-0.0763,-0.08,-0.0835,-0.0926,-0.0997,-0.107,-0.1044,-0.1128,-0.1104,-0.1161,-0.1134,-0.121,-0.1115,-0.1121,-0.1161,-0.1199,-0.1196,-0.1326,-0.1342,-0.1355,-0.1328,0,0,0,0,0]},{"header":{"parameterUnit":"m.s-1","parameterCategory":2,"la1":30.2991,"la2":30.254,"lo1":-89.0895,"lo2":-89.0444,"dy":0.0017,"dx":0.0017,"nx":28,"ny":28,"refTime":"2025-07-06T09:00:00:Z","depth":"4","parameterNumber":3,"parameterNumberName":"V-component_of_CURRENTS"},"data":[0,0,0,0,0,0,0,0,0,0,0,0,0,0,0,0,0,0,0,0,0,0,0,0,0,0,0,0,0,0,0,0,0,0,0,0,0,0,0,0,0,0,0,0,0,0,0,0,0,0,0,0,0,0,0,0,0,0,-0.0139,-0.0139,0,-0.0114,-0.0114,-0.0113,-0.0085,-0.0084,-0.0084,-0.0083,-0.0061,-0.0061,-0.0061,0,0,0,0,0,0,0,0,0,0,0,0,0,-0.016,-0.016,-0.0139,-0.0139,-0.0138,-0.0114,-0.0114,-0.0113,-0.0085,-0.0084,-0.0083,-0.0083,-0.0061,-0.0061,-0.0061,0,0,0,0,0,0,0,0,0,0,0,0,0,-0.0146,-0.016,-0.0139,-0.012,-0.0118,-0.0114,-0.0114,-0.0113,-0.0085,-0.0084,-0.0083,-0.0083,-0.0061,-0.0061,-0.0061,-0.0076,0,0,-0.006,-0.006,0,0,0,0,0,0,0,0,-0.0147,-0.0145,-0.0123,-0.0121,-0.0119,-0.01,-0.0113,-0.0101,-0.0085,-0.0099,-0.0083,-0.0082,-0.0074,-0.0073,-0.0072,-0.0075,-0.0074,-0.006,-0.006,-0.006,-0.006,0,0,0,0,0,0,0,-0.0148,-0.0146,-0.013,-0.0123,-0.012,-0.0112,-0.0109,-0.011,-0.0093,-0.0098,-0.0095,-0.009,-0.0073,-0.0072,-0.0071,-0.0074,-0.006,-0.006,-0.006,-0.006,-0.0087,-0.0088,0,0,0,0,0,0,-0.0149,-0.0147,-0.0131,-0.013,-0.013,-0.0112,-0.0109,-0.0108,-0.0092,-0.0089,-0.0091,-0.0089,-0.0072,-0.0071,-0.007,-0.0095,-0.006,-0.006,-0.006,-0.0086,-0.0087,-0.0088,0,0,0,0,0,0,-0.015,-0.0148,-0.0132,-0.0136,-0.0133,-0.0112,-0.0112,-0.0108,-0.0105,-0.0087,-0.0084,-0.0091,-0.0072,-0.007,-0.008,-0.0094,-0.006,-0.006,-0.0085,-0.0087,-0.0088,-0.0141,0,0,0,0,0,0,-0.0151,-0.0149,-0.0152,-0.0137,-0.0133,-0.0139,-0.0112,-0.0108,-0.0102,-0.01,-0.0086,-0.0083,-0.0071,-0.008,-0.008,-0.0093,-0.006,-0.0084,-0.0086,-0.0087,-0.0138,-0.0144,-0.0149,0,0,0,0,0,-0.0152,-0.016,-0.0152,-0.015,-0.0137,-0.0139,-0.0138,-0.012,-0.0103,-0.0112,-0.0102,-0.0083,-0.0089,-0.0081,-0.008,-0.0094,-0.0084,-0.0086,-0.0087,-0.0136,-0.0143,-0.0149,0,0,0,0,0,0,-0.0167,-0.0157,-0.0148,-0.0152,-0.015,-0.0134,-0.0136,-0.0124,-0.0123,-0.0117,-0.0098,-0.0096,-0.011,-0.0096,-0.0088,-0.0106,-0.0081,-0.0083,-0.0119,-0.0125,-0.013,-0.0115,-0.006,0,0,0,0,0,-0.0173,-0.0179,-0.0167,-0.0171,-0.017,-0.0154,-0.0151,-0.0142,-0.0135,-0.0133,-0.0125,-0.0116,-0.0118,-0.0116,-0.0117,-0.0129,-0.0066,-0.0135,-0.0141,-0.0145,-0.0132,-0.0034,-0.0028,-0.0094,-0.0094,-0.0094,0,0,-0.018,-0.0174,-0.0178,-0.0176,-0.0168,-0.0183,-0.0151,-0.0152,-0.0163,-0.0132,-0.0147,-0.0138,-0.0126,-0.0141,-0.0145,-0.013,-0.0099,-0.0147,-0.0151,-0.0136,-0.0035,-0.0028,-0.0022,-0.0095,-0.0095,-0.0095,0,0,-0.0204,-0.0192,-0.021,-0.0212,-0.0208,-0.0201,-0.0204,-0.0195,-0.0189,-0.0205,-0.0184,-0.0181,-0.0188,-0.0178,-0.0174,-0.0208,-0.0132,-0.0209,-0.0221,-0.0127,-0.0119,-0.0112,-0.0042,-0.0028,-0.0208,-0.0209,-0.0209,0,-0.0212,-0.0233,-0.0216,-0.0236,-0.0241,-0.0214,-0.0238,-0.0232,-0.023,-0.0223,-0.0218,-0.0207,-0.0204,-0.0202,-0.0216,-0.0219,-0.0149,-0.02,-0.013,-0.0121,-0.0113,-0.0042,-0.0026,-0.0211,-0.0211,-0.0211,-0.021,0,-0.0255,-0.0271,-0.028,-0.0298,-0.0304,-0.0317,-0.0308,-0.0308,-0.0296,-0.0285,-0.0279,-0.0266,-0.025,-0.0257,-0.025,-0.0203,-0.0169,-0.0149,-0.0109,-0.0109,-0.0036,-0.0018,-0.0215,-0.0214,-0.0213,-0.0213,0,0,-0.0269,-0.0306,-0.0309,-0.0328,-0.0337,-0.0344,-0.0359,-0.0358,-0.0351,-0.0342,-0.0323,-0.0332,-0.0297,-0.0289,-0.0269,-0.0198,-0.0101,-0.0148,-0.0141,-0.0069,0.0112,0.0046,0.006,-0.0049,-0.0046,-0.0043,0.0133,0,-0.0306,-0.0362,-0.0368,-0.0413,-0.0437,-0.042,-0.0434,-0.0426,-0.0405,-0.038,-0.034,-0.0324,-0.0316,-0.0301,-0.0229,-0.0126,-0.0052,-0.0151,0.0095,0.0101,0.0051,0.0078,-0.0033,0.0147,0.0151,0.0155,0.0157,0,-0.0345,-0.0378,-0.0438,-0.0466,-0.0473,-0.0495,-0.049,-0.0497,-0.0451,-0.043,-0.0386,-0.0341,-0.0263,-0.0245,-0.0052,-0.0104,-0.0001,0.0081,0.0091,0.0066,0.0069,0.0153,0.019,0.0188,0.0185,0.0183,0.0181,0,-0.0365,-0.0418,-0.0469,-0.0482,-0.0515,-0.0528,-0.0535,-0.0512,-0.05,-0.0445,-0.0409,-0.0318,-0.0249,-0.0104,0.0036,0.0022,0.027,0.0272,0.0306,0.0303,0.0335,0.0326,0.0426,0.0425,0.0425,0.0425,0.0424,0,-0.0398,-0.0433,-0.0483,-0.051,-0.0552,-0.0557,-0.0573,-0.0563,-0.0521,-0.0484,-0.0426,-0.0354,-0.0197,-0.0053,0.007,0.0239,0.0303,0.0319,0.0352,0.0302,0.0288,0.0347,0.0336,0.0431,0.043,0.0428,0.0427,0,-0.041,-0.0448,-0.0505,-0.0553,-0.0567,-0.0593,-0.0602,-0.0598,-0.0557,-0.0495,-0.047,-0.0338,-0.0151,-0.0012,0.0232,0.0278,0.044,0.0481,0.0407,0.0432,0.0404,0.0388,0.0554,0.0553,0.0553,0.0552,0.0552,0,-0.0424,-0.0457,-0.0533,-0.0567,-0.0593,-0.0626,-0.0641,-0.0623,-0.06,-0.0473,-0.0428,-0.0256,-0.0158,0.0152,0.0269,0.0476,0.0484,0.0542,0.0473,0.0406,0.0422,0.0406,0.0391,0.0551,0.0551,0.0551,0.055,0,-0.0441,-0.0472,-0.0519,-0.0589,-0.0627,-0.0658,-0.0666,-0.0644,-0.0586,-0.0543,-0.0344,-0.0203,-0.0007,0.0178,0.0314,0.0459,0.0488,0.0537,0.0538,0.0475,0.0404,0.0417,0.0403,0.0548,0.0549,0.0549,0.0549,0,-0.0445,-0.048,-0.0542,-0.0596,-0.0652,-0.0668,-0.0674,-0.0605,-0.0564,-0.0412,-0.0336,-0.0127,0.0001,0.0172,0.0314,0.0422,0.0439,0.0445,0.0452,0.0456,0.0338,0.0228,0.0366,0,0,0,0,0,-0.0441,-0.0478,-0.0538,-0.0603,-0.0658,-0.0681,-0.0677,-0.0665,-0.0593,-0.0445,-0.0383,-0.019,0.0038,0.0143,0.0251,0.025,0.0408,0.0367,0.0405,0.0537,0.054,0.0407,0,0,0,0,0,0,-0.0443,-0.0499,-0.0532,-0.0592,-0.0632,-0.0677,-0.0673,-0.0628,-0.0533,-0.0434,-0.029,-0.0203,0.0027,-0.0002,0.0251,0.0279,0.0304,0.0482,0.0482,0.0536,0.0538,0.054,0.0404,0,0,0,0,0]}]]